Simultaneous Nadir Overpasses (SNOs) Predictions

Prediction of SNOs between GOES-17 and NOAA-19 Satellite Orbit:

Table of predicted SNOs for the next 14.0 days since TLE Epoch: 7/1/2023
Index Date Time (GOES-17) GOES-17 Lat,Lon NOAA-19 Lat,Lon Distance(km) Time Diff (sec)
1 07/02/2023 15:43:17 -0.00,-104.75 0.45,-106.68 220.91 80
2 07/03/2023 15:33:55 -0.00,-104.74 -0.25,-103.75 113.56 80
3 07/04/2023 15:21:51 -0.00,-104.74 -0.89,-100.81 448.04 80
4 07/06/2023 03:54:02 0.00,-104.69 -0.87,-108.53 438.20 80
5 07/07/2023 03:42:00 -0.00,-104.69 -0.19,-105.60 103.77 80
6 07/08/2023 03:27:17 -0.00,-104.69 0.49,-102.67 230.83 80
7 07/10/2023 15:47:17 0.00,-104.73 0.65,-107.41 306.90 80
8 07/11/2023 15:37:55 0.00,-104.73 -0.06,-104.48 28.14 80
9 07/12/2023 15:25:51 0.00,-104.73 -0.71,-101.54 363.13 80
